Location: Unspecified
(0.0000°N, 0.0000°E)
Time: 11:52:38
(UTC+00:00)

Hubble Space Telescope - Pass Details

Date: 21 May 2017
Orbit: 538 x 542 km, 28.5° (Epoch: 22 August)

Event Time Altitude Azimuth Distance (km) Brightness Sun altitude
Rises 19:11:49 0° 226° (SW) 2,679 4.7 -17.6°
Reaches altitude 10° 19:14:13 10° 217° (SW) 1,788 3.6 -18.1°
Enters shadow 19:17:41 34° 161° (SSE) 885 1.5 -18.9°
